Location: La Chapelle
(48.3135°N, 1.3085°W)
Time: 02:24:39
(UTC+00:00)

YAOGAN 1 - Pass Details

Date: 03 March 2021
Orbit: 618 x 620 km, 97.9° (Epoch: 17 April)

Event Time Altitude Azimuth Distance (km) Brightness Sun altitude
Rises 19:14:18 0° 183° (S) 2,884 6.0 -14.4°
Reaches altitude 10° 19:16:34 10° 190° (S) 1,984 5.2 -14.7°
Maximum altitude 19:20:39 42° 262° (W) 899 3.9 -15.4°
Drops below altitude 10° 19:24:48 10° 333° (NNW) 2,000 5.6 -16.1°
Sets 19:27:06 0° 341° (NNW) 2,911 6.4 -16.5°
